[[{"header":{"parameterUnit":"m.s-1","parameterCategory":1,"la1":30.2991,"la2":30.254,"lo1":-89.0895,"lo2":-89.0444,"dy":0.0017,"dx":0.0017,"nx":28,"ny":28,"refTime":"2024-10-08T09:00:00:Z","depth":0,"parameterNumber":2,"parameterNumberName":"U-component_of_WINDS"},"data":[0,0,0,0,0,0,0,0,0,0,0,0,0,0,0,0,0,0,0,0,0,0,0,0,0,0,0,0,0,0,0,0,0,0,0,0,0,0,0,0,0,0,0,0,0,0,0,0,0,0,0,0,0,0,0,0,0,0,-0.3114,-0.3114,0,-0.3129,-0.3129,-0.3129,-0.3108,-0.3108,-0.3107,-0.3106,-0.3122,-0.3123,-0.3125,0,0,0,0,0,0,0,0,0,0,0,0,0,-0.3067,-0.3068,-0.3114,-0.3114,-0.3114,-0.3129,-0.3129,-0.3129,-0.3109,-0.3108,-0.3107,-0.3106,-0.3122,-0.3123,-0.3125,0,0,0,0,0,0,0,0,0,0,0,0,0,-0.3085,-0.3069,-0.3114,-0.3106,-0.3105,-0.3129,-0.3129,-0.3129,-0.3109,-0.3108,-0.3107,-0.3106,-0.3122,-0.3123,-0.3125,-0.3157,0,0,-0.313,-0.3131,0,0,0,0,0,0,0,0,-0.3084,-0.3087,-0.3107,-0.3106,-0.3106,-0.3116,-0.3118,-0.3139,-0.3109,-0.3107,-0.3106,-0.3105,-0.3121,-0.3123,-0.3128,-0.3158,-0.3159,-0.313,-0.3131,-0.3132,-0.3132,0,0,0,0,0,0,0,-0.3083,-0.3086,-0.312,-0.3107,-0.3106,-0.3101,-0.3103,-0.3122,-0.312,-0.3107,-0.3106,-0.3108,-0.3121,-0.3126,-0.3128,-0.3159,-0.313,-0.3132,-0.3133,-0.3133,-0.3216,-0.3217,0,0,0,0,0,0,-0.3083,-0.3085,-0.3119,-0.312,-0.3092,-0.3103,-0.3104,-0.3114,-0.312,-0.312,-0.3109,-0.3107,-0.3124,-0.3126,-0.3129,-0.3167,-0.3132,-0.3133,-0.3134,-0.3215,-0.3217,-0.3218,0,0,0,0,0,0,-0.3082,-0.3086,-0.3119,-0.3102,-0.3106,-0.3105,-0.3115,-0.3114,-0.312,-0.3121,-0.3121,-0.3115,-0.3123,-0.3126,-0.315,-0.3168,-0.3134,-0.3136,-0.3214,-0.3216,-0.3217,-0.3245,0,0,0,0,0,0,-0.3081,-0.3086,-0.3098,-0.3103,-0.3107,-0.314,-0.3116,-0.3116,-0.3123,-0.3121,-0.3127,-0.3127,-0.3123,-0.3148,-0.3152,-0.3169,-0.3137,-0.3212,-0.3215,-0.3217,-0.3243,-0.3248,-0.3252,0,0,0,0,0,-0.3079,-0.3106,-0.3099,-0.3103,-0.3123,-0.3141,-0.3144,-0.3138,-0.3125,-0.3137,-0.3138,-0.3127,-0.3165,-0.3151,-0.3155,-0.3173,-0.3211,-0.3214,-0.3217,-0.3241,-0.3247,-0.3252,0,0,0,0,0,0,-0.3104,-0.3106,-0.3099,-0.3128,-0.3135,-0.3138,-0.3154,-0.3145,-0.3156,-0.3153,-0.3145,-0.3147,-0.3173,-0.3175,-0.3159,-0.3205,-0.3186,-0.3189,-0.3203,-0.3208,-0.3213,-0.3212,-0.3138,0,0,0,0,0,-0.3113,-0.3128,-0.3129,-0.3154,-0.3158,-0.3155,-0.3163,-0.3158,-0.3165,-0.3167,-0.3169,-0.3176,-0.319,-0.3199,-0.3211,-0.3242,-0.3244,-0.3257,-0.3262,-0.3265,-0.3269,-0.3286,-0.3292,-0.3227,-0.3227,-0.3227,0,0,-0.3132,-0.3135,-0.3145,-0.316,-0.3164,-0.318,-0.3158,-0.3175,-0.3187,-0.317,-0.3193,-0.3195,-0.3202,-0.3229,-0.3242,-0.3232,-0.3287,-0.3269,-0.3272,-0.3274,-0.3289,-0.3295,-0.3301,-0.3229,-0.3228,-0.3228,0,0,-0.3174,-0.3177,-0.3199,-0.3204,-0.321,-0.3208,-0.3213,-0.3218,-0.3218,-0.324,-0.3228,-0.3241,-0.3265,-0.327,-0.3276,-0.3319,-0.3309,-0.3323,-0.3348,-0.3364,-0.3369,-0.3374,-0.3389,-0.3395,-0.3326,-0.3326,-0.3326,0,-0.3197,-0.322,-0.3212,-0.323,-0.3237,-0.3221,-0.3243,-0.3248,-0.3259,-0.3264,-0.3253,-0.3281,-0.3285,-0.3313,-0.3324,-0.3329,-0.3335,-0.3323,-0.3369,-0.3373,-0.3377,-0.3392,-0.3398,-0.3328,-0.3328,-0.3328,-0.3328,0,-0.3247,-0.3263,-0.328,-0.329,-0.3298,-0.3318,-0.3313,-0.3323,-0.3316,-0.3315,-0.3338,-0.3342,-0.3354,-0.336,-0.3355,-0.3388,-0.3382,-0.337,-0.3351,-0.3385,-0.3399,-0.3405,-0.333,-0.333,-0.3329,-0.3329,0,0,-0.3308,-0.3312,-0.3318,-0.3322,-0.3328,-0.334,-0.3359,-0.3371,-0.3379,-0.3387,-0.3403,-0.3422,-0.341,-0.3417,-0.3411,-0.3425,-0.3459,-0.3411,-0.3412,-0.3421,-0.3497,-0.3507,-0.3514,-0.3452,-0.3453,-0.3454,-0.3496,0,-0.335,-0.3383,-0.3376,-0.3408,-0.3423,-0.3407,-0.3423,-0.3429,-0.3428,-0.344,-0.3438,-0.3452,-0.3436,-0.344,-0.3453,-0.3452,-0.3475,-0.3449,-0.3468,-0.3468,-0.3468,-0.3521,-0.3532,-0.3572,-0.3502,-0.3503,-0.3503,0,-0.3405,-0.3414,-0.3448,-0.345,-0.3456,-0.3471,-0.3481,-0.3492,-0.3498,-0.3496,-0.3502,-0.3494,-0.3512,-0.3492,-0.3517,-0.35,-0.3507,-0.3507,-0.3509,-0.3511,-0.3489,-0.3526,-0.3584,-0.3591,-0.3512,-0.3511,-0.351,0,-0.3447,-0.3467,-0.349,-0.3493,-0.3497,-0.3508,-0.351,-0.3513,-0.3521,-0.3529,-0.3534,-0.3545,-0.3551,-0.3559,-0.3554,-0.3539,-0.358,-0.3559,-0.358,-0.358,-0.359,-0.359,-0.3652,-0.3593,-0.3592,-0.3592,-0.3592,0,-0.3496,-0.3518,-0.3508,-0.3523,-0.3546,-0.3536,-0.356,-0.356,-0.3563,-0.3577,-0.3564,-0.3577,-0.3568,-0.358,-0.3576,-0.3598,-0.36,-0.36,-0.3599,-0.3602,-0.3602,-0.3607,-0.3605,-0.3594,-0.3594,-0.3593,-0.3593,0,-0.3548,-0.3542,-0.3566,-0.3567,-0.3567,-0.3584,-0.3585,-0.3598,-0.3595,-0.3613,-0.3616,-0.3612,-0.3626,-0.362,-0.3635,-0.3632,-0.366,-0.3655,-0.3659,-0.3658,-0.3679,-0.3677,-0.3747,-0.3756,-0.369,-0.3691,-0.3691,0,-0.358,-0.3596,-0.3598,-0.3606,-0.3609,-0.3622,-0.3629,-0.362,-0.3628,-0.3635,-0.3647,-0.3659,-0.3669,-0.3692,-0.369,-0.3701,-0.3696,-0.372,-0.3698,-0.3701,-0.3698,-0.3698,-0.3699,-0.3725,-0.3726,-0.3726,-0.3727,0,-0.3639,-0.3635,-0.3646,-0.3656,-0.3664,-0.3672,-0.3678,-0.3685,-0.3676,-0.3686,-0.37,-0.3707,-0.3721,-0.3734,-0.3744,-0.3745,-0.3735,-0.3733,-0.3739,-0.3743,-0.3745,-0.3745,-0.3672,-0.3732,-0.3732,-0.3731,-0.3731,-0.3731,-0.3682,-0.3696,-0.3699,-0.3712,-0.3715,-0.3721,-0.3733,-0.3731,-0.3742,-0.3753,-0.3747,-0.3763,-0.3766,-0.3778,-0.3781,-0.3793,-0.3784,-0.3792,-0.3794,-0.3797,-0.38,-0.3742,-0.3795,-0.3795,-0.3795,-0.3795,-0.3794,0,-0.3741,-0.3742,-0.3753,-0.3762,-0.3772,-0.376,-0.3765,-0.3774,-0.3789,-0.3793,-0.3802,-0.3818,-0.3829,-0.3828,-0.3839,-0.3849,-0.3844,-0.3852,-0.3852,-0.3853,-0.3807,-0.3802,-0.3856,-0.3856,-0.3856,-0.3856,-0.3856,-0.3856,-0.3773,-0.3795,-0.3791,-0.3815,-0.3815,-0.3831,-0.3835,-0.384,-0.3844,-0.3861,-0.3871,-0.387,-0.3871,-0.3882,-0.3892,-0.3891,-0.3897,-0.3906,-0.3904,-0.3862,-0.3856,-0.385,-0.3845,-0.3907,-0.3907,-0.3949,-0.3949,-0.3949]},{"header":{"parameterUnit":"m.s-1","parameterCategory":1,"la1":30.2991,"la2":30.254,"lo1":-89.0895,"lo2":-89.0444,"dy":0.0017,"dx":0.0017,"nx":28,"ny":28,"refTime":"2024-10-08T09:00:00:Z","depth":0,"parameterNumber":3,"parameterNumberName":"V-component_of_WINDS"},"data":[0,0,0,0,0,0,0,0,0,0,0,0,0,0,0,0,0,0,0,0,0,0,0,0,0,0,0,0,0,0,0,0,0,0,0,0,0,0,0,0,0,0,0,0,0,0,0,0,0,0,0,0,0,0,0,0,0,0,-4.732,-4.7321,0,-4.7386,-4.7386,-4.7387,-4.7327,-4.7324,-4.7322,-4.7319,-4.7381,-4.7385,-4.7388,0,0,0,0,0,0,0,0,0,0,0,0,0,-4.7137,-4.7141,-4.732,-4.7321,-4.7322,-4.7386,-4.7386,-4.7387,-4.7327,-4.7324,-4.7321,-4.7318,-4.738,-4.7384,-4.7389,0,0,0,0,0,0,0,0,0,0,0,0,0,-4.7211,-4.7142,-4.732,-4.73,-4.7298,-4.7385,-4.7387,-4.7388,-4.7328,-4.7324,-4.732,-4.7317,-4.7378,-4.7384,-4.7389,-4.7498,0,0,-4.7407,-4.741,0,0,0,0,0,0,0,0,-4.7207,-4.7218,-4.7302,-4.7301,-4.73,-4.7344,-4.7344,-4.7425,-4.7328,-4.7316,-4.7319,-4.7315,-4.7371,-4.7377,-4.7397,-4.7501,-4.7504,-4.7408,-4.7411,-4.7414,-4.7416,0,0,0,0,0,0,0,-4.7202,-4.7215,-4.7346,-4.7303,-4.7302,-4.7285,-4.7292,-4.7359,-4.7363,-4.7317,-4.7313,-4.7322,-4.737,-4.7392,-4.7398,-4.7505,-4.7408,-4.7413,-4.7416,-4.7419,-4.7701,-4.7705,0,0,0,0,0,0,-4.72,-4.7211,-4.7344,-4.7348,-4.7244,-4.7292,-4.7299,-4.7334,-4.7362,-4.7363,-4.7325,-4.7319,-4.7384,-4.7392,-4.74,-4.753,-4.7414,-4.7419,-4.7423,-4.7697,-4.7702,-4.7706,0,0,0,0,0,0,-4.7196,-4.7212,-4.7341,-4.7278,-4.7293,-4.7299,-4.7338,-4.7337,-4.7359,-4.7368,-4.7368,-4.7347,-4.7381,-4.7392,-4.7475,-4.7531,-4.7422,-4.7427,-4.7693,-4.7699,-4.7704,-4.779,0,0,0,0,0,0,-4.7191,-4.7211,-4.7254,-4.728,-4.7297,-4.7416,-4.7342,-4.7341,-4.737,-4.7362,-4.7389,-4.739,-4.7379,-4.7467,-4.7481,-4.7537,-4.7432,-4.7687,-4.7695,-4.7702,-4.7783,-4.7799,-4.7812,0,0,0,0,0,-4.7185,-4.7274,-4.7257,-4.7273,-4.7351,-4.742,-4.7429,-4.7417,-4.7375,-4.7417,-4.7423,-4.7389,-4.7523,-4.7476,-4.7491,-4.755,-4.7684,-4.7693,-4.7702,-4.7776,-4.7796,-4.7812,0,0,0,0,0,0,-4.7253,-4.7277,-4.7258,-4.7359,-4.7388,-4.741,-4.7462,-4.7438,-4.7479,-4.747,-4.7451,-4.7457,-4.7545,-4.7556,-4.7502,-4.7657,-4.7596,-4.7609,-4.7647,-4.7666,-4.7681,-4.7676,-4.7437,0,0,0,0,0,-4.728,-4.7336,-4.7353,-4.744,-4.7456,-4.7457,-4.7487,-4.7475,-4.7503,-4.7515,-4.7527,-4.7555,-4.7603,-4.7635,-4.768,-4.7784,-4.7788,-4.7832,-4.7847,-4.7859,-4.787,-4.7926,-4.7946,-4.7736,-4.7736,-4.7736,0,0,-4.7335,-4.7356,-4.7392,-4.7455,-4.7476,-4.7533,-4.7468,-4.753,-4.7572,-4.7524,-4.7603,-4.7613,-4.7643,-4.7737,-4.7779,-4.7748,-4.7929,-4.7871,-4.7881,-4.7885,-4.7938,-4.7957,-4.7975,-4.7742,-4.7741,-4.774,0,0,-4.7466,-4.7487,-4.7563,-4.7586,-4.762,-4.762,-4.7638,-4.7664,-4.7669,-4.775,-4.7715,-4.7763,-4.7846,-4.7869,-4.7892,-4.8032,-4.8002,-4.8047,-4.8125,-4.818,-4.8196,-4.8211,-4.8261,-4.8279,-4.8058,-4.8058,-4.8058,0,-4.753,-4.7616,-4.7604,-4.767,-4.7698,-4.766,-4.7735,-4.7757,-4.7803,-4.7823,-4.7789,-4.7894,-4.7911,-4.801,-4.8045,-4.8064,-4.8083,-4.8044,-4.8195,-4.821,-4.8223,-4.8271,-4.829,-4.8063,-4.8063,-4.8062,-4.8062,0,-4.7694,-4.7754,-4.7811,-4.7859,-4.7893,-4.7964,-4.796,-4.7996,-4.7982,-4.7985,-4.8067,-4.8086,-4.8135,-4.8157,-4.8142,-4.8255,-4.8235,-4.8198,-4.8137,-4.8249,-4.8293,-4.8311,-4.8071,-4.8069,-4.8068,-4.8066,0,0,-4.7868,-4.791,-4.7931,-4.7953,-4.7988,-4.8033,-4.8101,-4.8151,-4.8182,-4.8215,-4.8271,-4.8344,-4.8311,-4.8336,-4.8324,-4.8372,-4.8482,-4.8329,-4.833,-4.8357,-4.8607,-4.8634,-4.8656,-4.8463,-4.8466,-4.8469,-4.8604,0,-4.8,-4.8121,-4.8112,-4.8226,-4.8281,-4.8246,-4.8305,-4.8332,-4.8337,-4.8383,-4.8387,-4.8439,-4.8392,-4.8407,-4.8453,-4.8459,-4.8532,-4.8449,-4.8514,-4.8516,-4.8508,-4.8679,-4.8708,-4.8834,-4.8622,-4.8625,-4.8627,0,-4.8171,-4.8213,-4.8332,-4.836,-4.8383,-4.8437,-4.8482,-4.8527,-4.8556,-4.8556,-4.8586,-4.8566,-4.8633,-4.857,-4.8662,-4.8606,-4.8631,-4.8638,-4.8643,-4.8648,-4.8578,-4.8689,-4.8874,-4.8894,-4.8654,-4.8652,-4.865,0,-4.8286,-4.8372,-4.8455,-4.8475,-4.8509,-4.8548,-4.8563,-4.859,-4.862,-4.8659,-4.8679,-4.8724,-4.8748,-4.8783,-4.8775,-4.873,-4.8869,-4.8805,-4.887,-4.887,-4.8901,-4.8899,-4.9093,-4.8918,-4.8917,-4.8917,-4.8916,0,-4.8435,-4.8509,-4.8508,-4.8559,-4.8641,-4.863,-4.8711,-4.8721,-4.8745,-4.8797,-4.8768,-4.8816,-4.8802,-4.885,-4.8844,-4.8921,-4.8932,-4.8933,-4.893,-4.8936,-4.8936,-4.8952,-4.8943,-4.8922,-4.8921,-4.892,-4.8919,0,-4.8578,-4.858,-4.8668,-4.8694,-4.8703,-4.8762,-4.8783,-4.8831,-4.8834,-4.8899,-4.8914,-4.8918,-4.8972,-4.8968,-4.9028,-4.9024,-4.912,-4.9106,-4.9111,-4.9108,-4.9173,-4.9167,-4.9385,-4.9413,-4.9219,-4.922,-4.9222,0,-4.8672,-4.873,-4.8763,-4.8796,-4.8815,-4.8869,-4.8901,-4.8891,-4.8925,-4.8964,-4.9007,-4.9059,-4.91,-4.9189,-4.9196,-4.9242,-4.923,-4.9303,-4.9236,-4.924,-4.9231,-4.9228,-4.9234,-4.9316,-4.9318,-4.932,-4.9321,0,-4.884,-4.8839,-4.8887,-4.8937,-4.8976,-4.9014,-4.9048,-4.9076,-4.907,-4.9109,-4.9166,-4.9198,-4.9261,-4.9313,-4.9358,-4.9371,-4.9346,-4.9343,-4.936,-4.9366,-4.9366,-4.9367,-4.9146,-4.9337,-4.9336,-4.9335,-4.9334,-4.9333,-4.8962,-4.9012,-4.9043,-4.9098,-4.9123,-4.9156,-4.9203,-4.9213,-4.926,-4.9313,-4.9303,-4.9367,-4.9395,-4.9452,-4.947,-4.9519,-4.9492,-4.9517,-4.9524,-4.953,-4.9538,-4.9359,-4.9526,-4.9526,-4.9525,-4.9525,-4.9525,0,-4.9129,-4.9148,-4.9199,-4.9249,-4.9292,-4.9266,-4.9303,-4.934,-4.9397,-4.9426,-4.9468,-4.9533,-4.9584,-4.9596,-4.9644,-4.968,-4.967,-4.9693,-4.969,-4.9694,-4.9559,-4.9539,-4.9701,-4.9701,-4.9701,-4.9701,-4.9701,-4.9701,-4.9221,-4.9303,-4.9306,-4.94,-4.9418,-4.9482,-4.9505,-4.9535,-4.9559,-4.9634,-4.9676,-4.9685,-4.9707,-4.9756,-4.9801,-4.9803,-4.9822,-4.9851,-4.9848,-4.9721,-4.9704,-4.9687,-4.9668,-4.9855,-4.9855,-4.998,-4.9981,-4.9982]}]]